Regional Weather Roundup
Issued by NWS

Home | Current Version | Previous Version | Graphics & Text | Print | Product List | Glossary On
Versions: 1 2 3 4 5 6 7 8 9 10 11 12 13 14 15 16 17 18 19 20 21 22 23 24 25 26 27 28 29 30 31 32 33 34 35 36 37 38 39 40 41 42 43 44 45 46 47 48 49 50
000
ASUS43 KIND 190800
RWRIN

WEATHER ROUNDUP FOR INDIANA
NATIONAL WEATHER SERVICE INDIANAPOLIS IN
400 AM EDT THU OCT 19 2017

NOTE: "FAIR" INDICATES FEW OR NO CLOUDS BELOW 12,000 FEET WITH NO
SIGNIFICANT WEATHER AND/OR OBSTRUCTIONS TO VISIBILITY.

* - STATION DOES NOT REPORT WEATHER SUCH AS PRECIPITATION OR FOG.

+ - STATION NOT QUALITY CONTROLLED BY THE NATIONAL WEATHER SERVICE.
    USE DATA WITH CAUTION...ESPECIALLY DEWPOINT AND RELATIVE
    HUMIDITY OBSERVATIONS.

INZ001>003-010>013-019-020-190900-
NORTHWEST INDIANA

CITY           SKY/WX    TMP DP  RH WIND       PRES   REMARKS
KNOX *+        CLEAR     50  45  81 S5        30.08F
MICHIGAN CITY+ CLEAR     52  45  76 S9        30.07S
MONTICELLO +   CLEAR     51  45  79 S7        30.11S
RENSSELAER +   CLEAR     54  43  66 SW10      30.09F

$$

LMZ046-743>745-190900-
SOUTHERN LAKE MICHIGAN

STATION/POSITION TIME  TEMP    WIND        PRES    WAVE
                       AIR SEA DIR/SP/G            HT
                 (UTC) (F)     (DEG/KT/KT) (MB)    (FT)
BURNS HARBOR     0740   57     200/ 12/ 16 1018.3R
MICHIGAN CITY    0730   56     190/ 13/ 16   N/A
5NW MICH CITY    0750   58 58  210/ 14/ 19   N/A     2

$$

INZ004-005-014>016-021>024-190900-
NORTH CENTRAL INDIANA

CITY           SKY/WX    TMP DP  RH WIND       PRES   REMARKS
GOSHEN         CLEAR     53  43  68 SW12      30.08F
PERU/GRISSOM   CLEAR     52  46  82 SW10      30.12S
SOUTH BEND     CLEAR     54  46  74 SW13      30.08S
WARSAW +       CLEAR     55  45  67 SW6       30.10F

$$

INZ006>009-017-018-025>027-190900-
NORTHEAST INDIANA

CITY           SKY/WX    TMP DP  RH WIND       PRES   REMARKS
AUBURN +       CLEAR     52  43  71 SW6       30.11F
FORT WAYNE     PTCLDY    48  43  82 SW8       30.13S
KENDALLVILLE + CLEAR     51  44  78 SW9       30.10F

$$

INZ028-029-035-036-043>045-051>053-190900-
WEST CENTRAL INDIANA

CITY           SKY/WX    TMP DP  RH WIND       PRES   REMARKS
GREENCASTLE +  CLEAR     54  45  71 S5        30.17R
LAFAYETTE      CLEAR     51  46  83 SW3       30.12F
TERRE HAUTE    CLEAR     50  44  80 S5        30.16S

$$

INZ030>032-037>040-046>048-054>057-064-065-190900-
CENTRAL INDIANA

CITY           SKY/WX    TMP DP  RH WIND       PRES   REMARKS
GREENWOOD *+   CLEAR     51  46  84 CALM      30.18R
INDIANAPOLIS   PTCLDY    51  45  79 S7        30.18R
-EAGLE CREEK   CLEAR     48  44  86 CALM      30.16S
KOKOMO +       CLEAR     51  45  79 S10G18    30.14F
MT COMFORT *+  CLEAR     48  46  93 S6        30.18R
SHELBYVILLE    CLEAR     50  43  77 S6        30.18R

$$

INZ033-034-041-042-049-050-058-059-190900-
EAST CENTRAL INDIANA

CITY           SKY/WX    TMP DP  RH WIND       PRES   REMARKS
MUNCIE         CLEAR     55  44  66 SW8       30.16S
RICHMOND +     CLEAR     50  43  76 SW7       30.19F

$$

INZ060-061-067>069-081>083-085>088-190900-
SOUTHWEST INDIANA

CITY           SKY/WX    TMP DP  RH WIND       PRES   REMARKS
EVANSVILLE     CLEAR     50  45  83 CALM      30.20S
HUNTINGBURG +  CLEAR     50  45  83 S5        30.20S

$$

INZ062-063-066-070>080-084-089>092-190900-
SOUTH CENTRAL AND SOUTHEAST INDIANA

CITY           SKY/WX    TMP DP  RH WIND       PRES   REMARKS
BLOOMINGTON    CLEAR     43  40  89 CALM      30.18S
MADISON *+     PTCLDY    45  43  93 CALM      30.23S
SEYMOUR +      CLEAR     41  37  87 CALM      30.19F

$$





USA.gov is the U.S. government's official web portal to all federal, state and local government web resources and services.